Powrót do katalogu

CZ-6A DEB

AktywnySSO
NORAD 54899·DEBRIS·🇨🇳 China

Wystrzelony Nov 11, 2022 z Taiyuan Satellite Launch Center

Loading…

Następne Przeloty (najbliższe 24 godziny)

TLE

ŚwieżeSource: Space-Track

Epoka: Sep 12, 2026, 23:52 UTC

1 54899U 22151QL  26255.99466316  .00001923  00000-0  78031-3 0  9997
2 54899  98.7715 276.3500 0026516  58.8744 301.5033 14.28637129196221

Śledź CZ-6A DEB w czasie rzeczywistym z AllMySat

Download on the App Store